Weather History for Vancouver, WA

Change the Weather History Date:

Monday, September 23, 2013

  Actual Average Record
Temperature  
Mean Temperature 61 °F 62 °F  
Max Temperature 64 °F 73 °F 94 °F (1943)
Min Temperature 57 °F 50 °F 33 °F (1908)
Degree Days  
Heating Degree Days 4    
Month to date heating degree days 24  
Since 1 July heating degree days 37  
Cooling Degree Days 0    
Month to date cooling degree days 74  
Year to date cooling degree days 450  
Growing Degree Days 9 (Base 50)    
Moisture  
Dew Point 53 °F    
Average Humidity 75    
Maximum Humidity 86    
Minimum Humidity 63    
Precipitation  
Precipitation 0.03 in 0.07 in 0.85 in (1920)
Month to date precipitation 1.96 0.98  
Year to date precipitation 17.79 22.81  
Snow  
Snow 0.00 in - - ()
Month to date snowfall 0.0  
Since 1 July snowfall 0.0  
Since 1 September snowfall 0.0  
Snow Depth 0.00 in    
Sea Level Pressure  
Sea Level Pressure 29.95 in    
Wind  
Wind Speed 5 mph (SW)    
Max Wind Speed 12 mph    
Max Gust Speed 16 mph    
Visibility 10 miles    
Events Rain    
T = Trace of Precipitation, MM = Missing Value Source: NWS Daily Summary

Daily Weather History Graph

Daily Weather History Graph

Search for Another Location

Airport:

Trip Planner

Search our weather history database for the weather conditions in past years. The results will help you decide how hot, cold, wet, or windy it might be!

Date:

Astronomy

Sep. 23, 2013 Rise Set
Actual Time 6:59 AM PDT 7:05 PM PDT
Civil Twilight 6:29 AM PDT 7:35 PM PDT
Nautical Twilight 5:54 AM PDT 8:09 PM PDT
Astronomical Twilight 5:19 AM PDT 8:45 PM PDT
Moon 9:27 PM PDT (9/23) 11:37 AM PDT (9/23)
Length of Visible Light 13h 05m
Length of Day
12h 06m
Waning Gibbous, 80% of the Moon is Illuminated
Sep 23
Waning Gibbous
Sep 26
Last Quarter
Oct 4
New
Oct 11
First Quarter
Oct 18
Full

Hourly Weather History & Observations

Time (PDT) Temp. Dew Point Humidity Pressure Visibility Wind Dir Wind Speed Gust Speed Precip Events Conditions
12:53 AM 57.0 °F 53.1 °F 87% 29.87 in 10.0 mi SE 3.5 mph - N/A   Partly Cloudy
1:23 AM 57.2 °F 53.6 °F 88% 29.87 in 10.0 mi ESE 3.5 mph - N/A   Overcast
1:33 AM 57.2 °F 53.6 °F 88% 29.88 in 10.0 mi Variable 3.5 mph - N/A   Overcast
1:53 AM 57.9 °F 54.0 °F 87% 29.88 in 10.0 mi Variable 5.8 mph - 0.00 in Rain Light Rain
2:53 AM 57.9 °F 53.1 °F 84% 29.88 in 10.0 mi Variable 3.5 mph - N/A   Overcast
3:53 AM 57.9 °F 53.1 °F 84% 29.89 in 10.0 mi South 4.6 mph - N/A   Mostly Cloudy
4:53 AM 57.9 °F 53.1 °F 84% 29.90 in 10.0 mi Variable 3.5 mph - N/A   Overcast
5:53 AM 57.9 °F 52.0 °F 81% 29.91 in 10.0 mi South 5.8 mph - N/A   Mostly Cloudy
6:53 AM 57.9 °F 53.1 °F 84% 29.93 in 10.0 mi South 6.9 mph - 0.00 in Rain Light Rain
7:53 AM 57.0 °F 54.0 °F 89% 29.93 in 10.0 mi SSW 5.8 mph - 0.02 in Rain Light Rain
8:53 AM 57.9 °F 53.1 °F 84% 29.95 in 10.0 mi Variable 4.6 mph - 0.00 in   Overcast
9:53 AM 59.0 °F 54.0 °F 83% 29.96 in 10.0 mi SSW 8.1 mph - N/A   Overcast
10:53 AM 60.1 °F 53.1 °F 78% 29.97 in 10.0 mi Variable 4.6 mph - N/A   Overcast
11:53 AM 61.0 °F 53.1 °F 75% 29.97 in 10.0 mi SSW 5.8 mph - N/A   Mostly Cloudy
12:53 PM 63.0 °F 53.1 °F 70% 29.97 in 10.0 mi Variable 3.5 mph - N/A   Mostly Cloudy
1:53 PM 63.0 °F 52.0 °F 67% 29.96 in 10.0 mi Variable 5.8 mph - N/A   Overcast
2:53 PM 63.0 °F 52.0 °F 67% 29.96 in 10.0 mi SSW 4.6 mph - N/A   Overcast
3:53 PM 64.0 °F 52.0 °F 65% 29.97 in 10.0 mi West 5.8 mph - 0.00 in   Overcast
4:04 PM 62.6 °F 51.8 °F 68% 29.97 in 10.0 mi West 9.2 mph - N/A   Overcast
4:17 PM 62.6 °F 51.8 °F 68% 29.97 in 10.0 mi West 8.1 mph - 0.00 in Rain Light Rain
4:53 PM 63.0 °F 52.0 °F 67% 29.97 in 10.0 mi WNW 5.8 mph - 0.00 in   Overcast
5:53 PM 61.0 °F 51.1 °F 70% 29.98 in 10.0 mi NW 5.8 mph - 0.00 in Rain Light Rain
6:53 PM 59.0 °F 55.9 °F 90% 29.98 in 10.0 mi Calm Calm - 0.01 in   Overcast
7:05 PM 59.0 °F 55.4 °F 88% 29.98 in 10.0 mi Calm Calm - 0.01 in Rain Light Rain
7:53 PM 57.9 °F 54.0 °F 87% 29.99 in 8.0 mi Calm Calm - 0.02 in Rain Light Rain
8:13 PM 57.2 °F 53.6 °F 88% 29.99 in 10.0 mi Calm Calm - 0.01 in Rain Light Rain
8:53 PM 57.0 °F 54.0 °F 89% 29.99 in 10.0 mi Calm Calm - 0.01 in   Overcast
9:53 PM 55.9 °F 52.0 °F 87% 30.00 in 10.0 mi Calm Calm - 0.00 in   Overcast
10:53 PM 54.0 °F 53.1 °F 97% 30.00 in 10.0 mi Calm Calm - N/A   Mostly Cloudy
11:53 PM 54.0 °F 53.1 °F 97% 30.00 in 10.0 mi Calm Calm - N/A   Overcast